Tiempo cada hora Munoch

Hoy, 24 Octubre, Sábado

Tiempo Temperatura Precipitaciones Viento Presión Humedad
00:00 +11°C° 0.2 mm 4 mps 742 mmHg 88%
01:00 +11°C° 0 mm 4 mps 742 mmHg 89%
02:00 +10°C° 0 mm 4 mps 742 mmHg 89%
03:00 +10°C° 0 mm 4 mps 742 mmHg 90%
04:00 +8°C° 0 mm 4 mps 742 mmHg 90%
05:00 +8°C° 0 mm 4 mps 743 mmHg 90%
06:00 +8°C° 0 mm 4 mps 743 mmHg 90%
07:00 +8°C° 0 mm 4 mps 743 mmHg 87%
08:00 +8°C° 0 mm 4 mps 744 mmHg 84%
09:00 +10°C° 0 mm 4 mps 744 mmHg 81%
10:00 +10°C° 0 mm 4 mps 745 mmHg 76%
11:00 +10°C° 0 mm 4 mps 745 mmHg 71%
12:00 +11°C° 0 mm 4 mps 745 mmHg 66%
13:00 +11°C° 0 mm 4 mps 745 mmHg 67%
14:00 +11°C° 0 mm 3 mps 746 mmHg 67%
15:00 +11°C° 0 mm 3 mps 746 mmHg 67%
16:00 +10°C° 0 mm 3 mps 746 mmHg 73%
17:00 +9°C° 0 mm 2 mps 746 mmHg 78%
18:00 +9°C° 0 mm 1 mps 746 mmHg 84%
19:00 +9°C° 0 mm 1 mps 746 mmHg 85%
20:00 +9°C° 0 mm 1 mps 746 mmHg 86%
21:00 +9°C° 0 mm 1 mps 746 mmHg 88%
22:00 +9°C° 0.2 mm 1 mps 746 mmHg 89%
23:00 +8°C° 0.2 mm 2 mps 746 mmHg 91%

Mañana, 25 Octubre, Domingo

Tiempo Temperatura Precipitaciones Viento Presión Humedad
00:00 +8°C° 0.2 mm 2 mps 745 mmHg 92%
01:00 +9°C° 0.6 mm 1 mps 745 mmHg 93%
02:00 +9°C° 0.6 mm 1 mps 745 mmHg 95%
03:00 +9°C° 0.6 mm 1 mps 745 mmHg 96%
04:00 +9°C° 0.2 mm 1 mps 745 mmHg 96%
05:00 +9°C° 0.2 mm 1 mps 745 mmHg 96%
06:00 +9°C° 0.2 mm 1 mps 745 mmHg 97%
07:00 +9°C° 0.2 mm 1 mps 745 mmHg 95%
08:00 +9°C° 0.2 mm 1 mps 746 mmHg 94%
09:00 +9°C° 0.2 mm 1 mps 746 mmHg 92%
10:00 +9°C° 0 mm 1 mps 747 mmHg 86%
11:00 +9°C° 0 mm 2 mps 747 mmHg 81%
12:00 +9°C° 0 mm 2 mps 748 mmHg 76%
13:00 +9°C° 0.1 mm 3 mps 748 mmHg 74%
14:00 +9°C° 0.1 mm 3 mps 749 mmHg 73%
15:00 +8°C° 0.1 mm 4 mps 749 mmHg 72%
16:00 +8°C° 0 mm 3 mps 749 mmHg 76%
17:00 +7°C° 0 mm 2 mps 750 mmHg 81%
18:00 +6°C° 0 mm 2 mps 750 mmHg 85%
19:00 +5°C° 0 mm 2 mps 751 mmHg 87%
20:00 +6°C° 0 mm 1 mps 751 mmHg 88%
21:00 +6°C° 0 mm 1 mps 752 mmHg 90%
22:00 +6°C° 0 mm 1 mps 752 mmHg 90%
23:00 +6°C° 0 mm 1 mps 752 mmHg 91%

Pasado mañana, 26 Octubre, Lunes

Tiempo Temperatura Precipitaciones Viento Presión Humedad
00:00 +7°C° 0 mm 1 mps 752 mmHg 92%
01:00 +7°C° 0 mm 1 mps 753 mmHg 92%
02:00 +7°C° 0 mm 1 mps 753 mmHg 93%
03:00 +7°C° 0 mm 1 mps 753 mmHg 94%
04:00 +7°C° 0 mm 1 mps 754 mmHg 94%
05:00 +6°C° 0 mm 1 mps 754 mmHg 95%
06:00 +6°C° 0 mm 1 mps 754 mmHg 95%
07:00 +5°C° 0 mm 2 mps 754 mmHg 94%
08:00 +6°C° 0 mm 2 mps 755 mmHg 93%
09:00 +6°C° 0 mm 2 mps 755 mmHg 91%
10:00 +7°C° 0 mm 2 mps 756 mmHg 88%
11:00 +7°C° 0 mm 2 mps 756 mmHg 84%
12:00 +8°C° 0 mm 2 mps 756 mmHg 81%
13:00 +9°C° 0 mm 1 mps 756 mmHg 80%
14:00 +9°C° 0 mm 1 mps 757 mmHg 80%
15:00 +9°C° 0 mm 1 mps 757 mmHg 79%
16:00 +8°C° 0 mm 1 mps 757 mmHg 83%
17:00 +7°C° 0 mm 1 mps 757 mmHg 87%
18:00 +6°C° 0 mm 1 mps 758 mmHg 90%
19:00 +6°C° 0 mm 1 mps 758 mmHg 91%
20:00 +5°C° 0 mm 1 mps 758 mmHg 92%
21:00 +5°C° 0 mm 1 mps 759 mmHg 92%
22:00 +4°C° 0 mm 1 mps 759 mmHg 92%
23:00 +4°C° 0 mm 1 mps 759 mmHg 92%

, 27 Octubre, Martes

Tiempo Temperatura Precipitaciones Viento Presión Humedad
00:00 +4°C° 0 mm 1 mps 759 mmHg 92%
01:00 +3°C° 0 mm 1 mps 760 mmHg 92%
02:00 +3°C° 0 mm 1 mps 760 mmHg 91%
03:00 +3°C° 0 mm 1 mps 760 mmHg 90%
04:00 +2°C° 0 mm 2 mps 760 mmHg 90%
05:00 +1°C° 0 mm 2 mps 760 mmHg 90%
06:00 +1°C° 0 mm 2 mps 761 mmHg 89%
07:00 +2°C° 0 mm 2 mps 761 mmHg 87%
08:00 +2°C° 0 mm 2 mps 761 mmHg 84%
09:00 +3°C° 0 mm 2 mps 761 mmHg 82%
10:00 +4°C° 0 mm 2 mps 761 mmHg 79%
11:00 +5°C° 0 mm 2 mps 761 mmHg 76%
12:00 +6°C° 0 mm 2 mps 761 mmHg 73%
13:00 +6°C° 0 mm 2 mps 761 mmHg 72%
14:00 +6°C° 0 mm 2 mps 761 mmHg 72%
15:00 +6°C° 0 mm 2 mps 761 mmHg 72%
16:00 +5°C° 0 mm 2 mps 761 mmHg 76%
17:00 +4°C° 0 mm 2 mps 761 mmHg 80%
18:00 +4°C° 0 mm 2 mps 761 mmHg 84%
19:00 +3°C° 0 mm 2 mps 761 mmHg 85%
20:00 +3°C° 0 mm 2 mps 761 mmHg 86%
21:00 +3°C° 0 mm 2 mps 761 mmHg 88%
22:00 +3°C° 0 mm 2 mps 761 mmHg 89%
23:00 +3°C° 0 mm 2 mps 761 mmHg 89%

27 Octubre, Martes

Tiempo Temperatura Precipitaciones Viento Presión Humedad
00:00 +4°C° 0 mm 1 mps 759 mmHg 92%
01:00 +3°C° 0 mm 1 mps 760 mmHg 92%
02:00 +3°C° 0 mm 1 mps 760 mmHg 91%
03:00 +3°C° 0 mm 1 mps 760 mmHg 90%
04:00 +2°C° 0 mm 2 mps 760 mmHg 90%
05:00 +1°C° 0 mm 2 mps 760 mmHg 90%
06:00 +1°C° 0 mm 2 mps 761 mmHg 89%
07:00 +2°C° 0 mm 2 mps 761 mmHg 87%
08:00 +2°C° 0 mm 2 mps 761 mmHg 84%
09:00 +3°C° 0 mm 2 mps 761 mmHg 82%
10:00 +4°C° 0 mm 2 mps 761 mmHg 79%
11:00 +5°C° 0 mm 2 mps 761 mmHg 76%
12:00 +6°C° 0 mm 2 mps 761 mmHg 73%
13:00 +6°C° 0 mm 2 mps 761 mmHg 72%
14:00 +6°C° 0 mm 2 mps 761 mmHg 72%
15:00 +6°C° 0 mm 2 mps 761 mmHg 72%
16:00 +5°C° 0 mm 2 mps 761 mmHg 76%
17:00 +4°C° 0 mm 2 mps 761 mmHg 80%
18:00 +4°C° 0 mm 2 mps 761 mmHg 84%
19:00 +3°C° 0 mm 2 mps 761 mmHg 85%
20:00 +3°C° 0 mm 2 mps 761 mmHg 86%
21:00 +3°C° 0 mm 2 mps 761 mmHg 88%
22:00 +3°C° 0 mm 2 mps 761 mmHg 89%
23:00 +3°C° 0 mm 2 mps 761 mmHg 89%

28 Octubre, Miércoles

Tiempo Temperatura Precipitaciones Viento Presión Humedad
00:00 +3°C° 0 mm 2 mps 761 mmHg 90%
01:00 +3°C° 0 mm 2 mps 761 mmHg 91%
02:00 +3°C° 0 mm 2 mps 761 mmHg 91%
03:00 +3°C° 0 mm 2 mps 761 mmHg 92%
04:00 +3°C° 0 mm 2 mps 761 mmHg 92%
05:00 +3°C° 0 mm 2 mps 761 mmHg 92%
06:00 +3°C° 0 mm 2 mps 761 mmHg 91%
07:00 +2°C° 0 mm 3 mps 761 mmHg 88%
08:00 +3°C° 0 mm 3 mps 761 mmHg 85%
09:00 +3°C° 0 mm 3 mps 761 mmHg 82%
10:00 +5°C° 0 mm 3 mps 761 mmHg 77%
11:00 +7°C° 0 mm 3 mps 761 mmHg 72%
12:00 +8°C° 0 mm 3 mps 761 mmHg 67%
13:00 +8°C° 0 mm 3 mps 761 mmHg 65%
14:00 +9°C° 0 mm 3 mps 761 mmHg 64%
15:00 +9°C° 0 mm 3 mps 761 mmHg 63%
16:00 +8°C° 0 mm 3 mps 761 mmHg 65%
17:00 +5°C° 0 mm 3 mps 761 mmHg 67%
18:00 +4°C° 0 mm 3 mps 761 mmHg 69%
19:00 +4°C° 0 mm 3 mps 761 mmHg 69%
20:00 +3°C° 0 mm 3 mps 761 mmHg 69%
21:00 +3°C° 0 mm 3 mps 761 mmHg 69%
22:00 +3°C° 0 mm 3 mps 761 mmHg 68%
23:00 +2°C° 0 mm 3 mps 761 mmHg 67%

29 Octubre, Jueves

Tiempo Temperatura Precipitaciones Viento Presión Humedad
00:00 +2°C° 0 mm 3 mps 761 mmHg 66%
01:00 +2°C° 0 mm 3 mps 761 mmHg 66%
02:00 +2°C° 0 mm 2 mps 761 mmHg 67%
03:00 +2°C° 0 mm 2 mps 761 mmHg 67%
04:00 +1°C° 0 mm 2 mps 761 mmHg 68%
05:00 +1°C° 0 mm 2 mps 761 mmHg 68%
06:00 -1°C° 0 mm 2 mps 761 mmHg 69%
07:00 0°C° 0 mm 3 mps 761 mmHg 67%
08:00 0°C° 0 mm 3 mps 761 mmHg 64%
09:00 +1°C° 0 mm 3 mps 761 mmHg 61%
10:00 +2°C° 0 mm 3 mps 761 mmHg 59%
11:00 +3°C° 0 mm 3 mps 761 mmHg 56%
12:00 +5°C° 0 mm 3 mps 761 mmHg 53%
13:00 +5°C° 0 mm 3 mps 760 mmHg 54%
14:00 +5°C° 0 mm 3 mps 760 mmHg 55%
15:00 +7°C° 0 mm 3 mps 759 mmHg 56%
16:00 +4°C° 0 mm 3 mps 759 mmHg 61%
17:00 +3°C° 0 mm 3 mps 759 mmHg 65%
18:00 +2°C° 0 mm 3 mps 759 mmHg 70%
19:00 +2°C° 0 mm 3 mps 759 mmHg 69%
20:00 +2°C° 0 mm 3 mps 759 mmHg 68%
21:00 +2°C° 0 mm 3 mps 759 mmHg 68%
22:00 +2°C° 0 mm 3 mps 759 mmHg 68%
23:00 +3°C° 0 mm 2 mps 758 mmHg 68%
Mostrar más

Necesitamos Su Consentimiento

Meteoprog y nuestros Proveedores de Servicios pueden almacenar y acceder a sus datos personales como cookies, identificadores de dispositivo u otras tecnologías similares de su dispositivo y procesar dichos datos para personalizar contenido y anuncios, además de ofrecer funciones de redes sociales y analizar el tráfico.

  • Almacenar y/o acceder a información en su dispositivo

    Se puede almacenar o acceder a cookies, identificadores de dispositivo u otra información de su dispositivo para los fines anteriormente indicados.

  • Anuncios y contenido personalizados, medición de anuncios y contenido, percepciones del público, y desarrollo de productos

    Los anuncios y el contenido pueden personalizarse en base a su perfil. Se pueden añadir más datos para personalizar mejor los anuncios y contenidos. Se puede medir el rendimiento de los anuncios y contenidos. Se puede obtener la percepción sobre el público que ha visto los anuncios y contenidos. Dichos datos pueden usarse para desarrollar o mejorar la experiencia del usuario, sistemas y software.

Al hacer clic en ‘Estoy De Acuerdo’ usted permitirá el uso de las cookies, identificadores de dispositivo, balizas web u otras tecnologías similares indicadas. Su configuración puede cambiarse desde el navegador de su dispositivo.

Para ciertos fines, los intereses legítimos pueden ser considerados por encima del consentimiento. Puede leer más sobre ello en nuestra Política de Privacidad y Cookies.